TimePST,TemperatureF,Dew PointF,Humidity,Sea Level PressureIn,VisibilityMPH,Wind Direction,Wind SpeedMPH,Gust SpeedMPH,PrecipitationIn,Events,Conditions,WindDirDegrees,DateUTC
12:02 AM,42.8,41.0,93,30.12,0.2,North,-9999.0,-,N/A,Fog,Fog,0,2012-12-10 08:02:00
12:21 AM,42.8,41.0,93,30.12,2.0,North,-9999.0,-,N/A,,Mist,0,2012-12-10 08:21:00
12:36 AM,42.8,42.8,100,30.12,2.0,North,-9999.0,-,N/A,,Partly Cloudy,0,2012-12-10 08:36:00
12:52 AM,43.0,41.0,93,30.12,2.0,North,-9999.0,-,N/A,,Clear,0,2012-12-10 08:52:00
1:39 AM,39.2,39.2,100,30.12,2.5,North,-9999.0,-,N/A,,Partly Cloudy,0,2012-12-10 09:39:00
1:50 AM,42.8,39.2,87,30.12,0.8,North,-9999.0,-,N/A,,Mist,0,2012-12-10 09:50:00
1:52 AM,41.0,39.9,96,30.12,0.5,North,-9999.0,-,N/A,Fog,Fog,0,2012-12-10 09:52:00
2:00 AM,41.0,39.2,93,30.12,0.2,North,-9999.0,-,N/A,Fog,Fog,0,2012-12-10 10:00:00
2:52 AM,41.0,39.9,96,30.12,1.8,North,-9999.0,-,N/A,,Mist,0,2012-12-10 10:52:00
2:59 AM,39.2,39.2,100,30.12,2.0,North,-9999.0,-,N/A,,Mist,0,2012-12-10 10:59:00
3:02 AM,41.0,39.2,93,30.11,1.5,North,-9999.0,-,N/A,,Partly Cloudy,0,2012-12-10 11:02:00
3:11 AM,41.0,39.2,93,30.11,0.5,North,-9999.0,-,N/A,Fog,Fog,0,2012-12-10 11:11:00
3:26 AM,41.0,39.2,93,30.11,0.8,North,-9999.0,-,N/A,,Clear,0,2012-12-10 11:26:00
3:49 AM,39.2,37.4,93,30.10,2.0,North,-9999.0,-,N/A,,Clear,0,2012-12-10 11:49:00
3:52 AM,39.9,37.9,93,30.10,2.0,North,-9999.0,-,N/A,,Clear,0,2012-12-10 11:52:00
4:04 AM,39.2,37.4,93,30.10,0.8,Calm,Calm,-,N/A,,Mist,0,2012-12-10 12:04:00
4:29 AM,39.2,37.4,93,30.10,1.2,North,-9999.0,-,N/A,,Partly Cloudy,0,2012-12-10 12:29:00
4:41 AM,41.0,39.2,93,30.10,2.0,North,-9999.0,-,N/A,,Clear,0,2012-12-10 12:41:00
4:52 AM,41.0,39.0,93,30.10,3.0,North,-9999.0,-,N/A,,Clear,0,2012-12-10 12:52:00
6:42 AM,37.4,37.4,100,30.11,1.8,North,-9999.0,-,N/A,,Clear,0,2012-12-10 14:42:00
6:52 AM,39.0,37.9,96,30.11,1.5,North,-9999.0,-,N/A,,Clear,0,2012-12-10 14:52:00
7:00 AM,39.2,37.4,93,30.11,2.0,North,-9999.0,-,N/A,,Clear,0,2012-12-10 15:00:00
7:19 AM,41.0,39.2,93,30.11,3.0,North,-9999.0,-,N/A,,Clear,0,2012-12-10 15:19:00
7:52 AM,46.9,44.1,90,30.12,7.0,Calm,Calm,-,N/A,,Clear,0,2012-12-10 15:52:00
8:52 AM,55.0,42.1,62,30.13,10.0,Calm,Calm,-,N/A,,Clear,0,2012-12-10 16:52:00
9:52 AM,64.0,39.9,41,30.13,10.0,Calm,Calm,-,N/A,,Clear,0,2012-12-10 17:52:00
10:52 AM,70.0,36.0,29,30.12,10.0,Calm,Calm,-,N/A,,Clear,0,2012-12-10 18:52:00
11:52 AM,70.0,43.0,38,30.09,10.0,WSW,8.1,-,N/A,,Clear,250,2012-12-10 19:52:00
12:52 PM,70.0,46.0,42,30.07,6.0,West,6.9,-,N/A,,Haze,270,2012-12-10 20:52:00
1:52 PM,70.0,44.1,39,30.05,5.0,WSW,9.2,-,N/A,,Haze,250,2012-12-10 21:52:00
2:52 PM,68.0,51.1,55,30.04,4.0,WSW,6.9,-,N/A,,Haze,250,2012-12-10 22:52:00
3:52 PM,64.9,54.0,68,30.03,3.0,West,4.6,-,N/A,,Haze,260,2012-12-10 23:52:00
4:52 PM,61.0,55.0,81,30.03,3.0,Calm,Calm,-,N/A,,Haze,0,2012-12-11 00:52:00
5:52 PM,59.0,55.0,87,30.04,3.0,Calm,Calm,-,N/A,,Clear,0,2012-12-11 01:52:00
6:17 PM,57.2,55.4,94,30.04,2.5,Calm,Calm,-,N/A,,Clear,0,2012-12-11 02:17:00
6:52 PM,53.1,51.1,93,30.05,1.5,Calm,Calm,-,N/A,,Clear,0,2012-12-11 02:52:00
7:08 PM,51.8,50.0,94,30.06,2.0,Calm,Calm,-,N/A,,Scattered Clouds,0,2012-12-11 03:08:00
7:17 PM,53.6,50.0,88,30.05,1.8,Calm,Calm,-,N/A,,Mostly Cloudy,0,2012-12-11 03:17:00
7:34 PM,53.6,51.8,94,30.05,2.0,Calm,Calm,-,N/A,,Overcast,0,2012-12-11 03:34:00
7:52 PM,54.0,52.0,93,30.05,1.8,Calm,Calm,-,N/A,,Overcast,0,2012-12-11 03:52:00
8:00 PM,51.8,48.2,88,30.06,2.0,ENE,4.6,-,N/A,,Overcast,60,2012-12-11 04:00:00
8:07 PM,53.6,53.6,100,30.06,1.8,NNE,3.5,-,N/A,,Overcast,30,2012-12-11 04:07:00
8:14 PM,55.4,53.6,94,30.06,2.0,NE,3.5,-,N/A,,Overcast,40,2012-12-11 04:14:00
8:41 PM,55.4,51.8,88,30.06,3.0,Calm,Calm,-,N/A,,Overcast,0,2012-12-11 04:41:00
8:52 PM,55.0,52.0,89,30.06,4.0,Calm,Calm,-,N/A,,Overcast,0,2012-12-11 04:52:00
9:47 PM,53.6,44.6,72,30.06,7.0,NE,5.8,-,N/A,,Scattered Clouds,40,2012-12-11 05:47:00
9:52 PM,52.0,45.0,77,30.06,7.0,Calm,Calm,-,N/A,,Partly Cloudy,0,2012-12-11 05:52:00
10:07 PM,51.8,50.0,94,30.07,2.5,NNE,4.6,-,N/A,,Mostly Cloudy,20,2012-12-11 06:07:00
10:19 PM,53.6,48.2,82,30.07,4.0,Calm,Calm,-,N/A,,Mostly Cloudy,0,2012-12-11 06:19:00
10:48 PM,51.8,42.8,71,30.07,9.0,NNE,3.5,-,N/A,,Scattered Clouds,20,2012-12-11 06:48:00
10:52 PM,51.1,41.0,68,30.07,10.0,Calm,Calm,-,N/A,,Partly Cloudy,0,2012-12-11 06:52:00
11:52 PM,46.9,41.0,80,30.06,8.0,NNE,3.5,-,N/A,,Clear,20,2012-12-11 07:52:00